     2              OBSERVATION DATA    GPS                 RINEX VERSION / TYPE
teqc 1998Jul1 Simon McClusky 99/06/22                       PGM / RUN BY / DATE
                                                            COMMENT
L2: 1 -> 1; 150 -> 5; 250 -> 9                              COMMENT
L2: 1 -> 1; 150 -> 5; 250 -> 9                              COMMENT
L2: 1 -> 1; 150 -> 5; 250 -> 9                              COMMENT
L2: 1 -> 1; 150 -> 5; 250 -> 9                              COMMENT
L2: 1 -> 1; 150 -> 5; 250 -> 9                              COMMENT
Original Marker Name: P_42                                  COMMENT
Campaign Name: China Lake May 1999                          COMMENT
4-Character Station Name: _P42                              COMMENT
6-Character Antenna Code: ASHGD3                            COMMENT
Vertical Measurement Point: TGP                             COMMENT
Vertical Offset to Rinex Ref. Point: 0.0640                 COMMENT
Radial Measurement Point: OOH                               COMMENT
Radial Offset to Rinex Ref. Point: 0.1737                   COMMENT
Antenna Height from Field Measurement: 1.2540 m             COMMENT
Additional Antenna Identification Info.:                    COMMENT
The Whopper (700718AB)                                      COMMENT
Original XYZ: -2326549.8100 -4655339.0900 3677076.7500      COMMENT
New XYZ position is based on association with SCEC monument COMMENT
E1F4G6V3+0011. Position of that monument is believed to be  COMMENT
valid to within 1 m horizontally; vertical accuracy         COMMENT
should be no worse than 3-times this value.                 COMMENT
                                                            COMMENT
Revised Rinex header created by UCSD GPS archive for        COMMENT
GSAC on 04-Aug-2000 (2000:217) 06:14:19 GMT                 COMMENT
For assistance contact dagnew@ucsd.edu                      COMMENT
or anderson@python.ucsd.edu                                 COMMENT
                                                            COMMENT
1947 P42                                                    MARKER NAME
LCS US NATIONAL IMAGERY MAPPING AGENCY                      OBSERVER / AGENCY
501 ASHTECH Z-XII3 4J30                                     REC # / TYPE / VERS
108 ASHTECH GEODETIC III                                    ANT # / TYPE
 -2326287.1185 -4655263.3265  3677159.3449                  APPROX POSITION XYZ
        1.1779        0.0000        0.0000                  ANTENNA: DELTA H/E/N
     1     1     0                                          WAVELENGTH FACT L1/2
     5    L1    L2    C1    P2    P1                        # / TYPES OF OBSERV
    30                                                      INTERVAL
  1999     4    30    15    32   30.000000                  TIME OF FIRST OBS
  1999     4    30    21    29   60.000000                  TIME OF LAST OBS
                                                            END OF HEADER
 99  4 30 15 32 30.0000000  0  7G27G 2G26G19G15G 7G13
     43646.16659     26595.47757  19396046.815    19396053.948
                                  19396047.246
    -20407.02259    -12104.28857  19477049.296    19477057.134    19477050.845
    -21043.14149    -12757.02947  20866363.105    20866371.892
                                  20866365.536    23316288.813    21996050.968
    -46175.97959    -31520.78257  18734259.767
  18734268.312                    18734261.645    22318406.261
 99  4 30 15 33 29.9990000  0  7G27G 2G26G19G15G 7G13
    123733.62949     89001.17547  20910249.386    20910256.190    20910249.681
    -49494.34549    -34769.77847  20970477.540    20970484.066    20970477.909
    -57789.19149    -41390.37747  22358333.945    22358341.573    22358335.017
    245573.43049    176509.00745  24845367.954    24845379.510    24845370.141
     20895.75649     14791.78245  23498521.551    23498529.981    23498522.670
   -121187.46049    -89971.30247  20218949.150    20218956.304    20218949.850
    207249.56749    144746.50745  23846074.584    23846083.449    23846075.349
 99  4 30 15 33 59.9990000  0  7G27G 2G26G19G15G 7G13
    164295.91649    120608.09747  20917968.201    20917974.972    20917968.458
    -63919.09049    -46009.85147  20967732.644    20967739.111    20967732.924
    -75464.60649    -55163.45847  22354970.685    22354978.342    22354971.618
    324722.96349    238183.67955  24860429.572    24860441.446    24860430.131
     30829.10049     22532.01545  23500412.222    23500419.799    23500412.849
   -158158.63449   -118780.00047  20211913.967    20211920.927    20211914.485
    282560.26649    203430.03245  23860406.102    23860414.899    23860407.310
 99  4 30 15 34 29.9990000  0  7G27G 2G26G19G15G 7G13
    205190.48949    152473.93547  20925750.211    20925756.989    20925750.447
    -78241.44249    -57170.13947  20965007.285    20965013.698    20965007.462
    -92658.65849    -68561.46347  22351698.789    22351706.203    22351699.654
    403927.50759    299901.19845  24875501.977    24875514.369    24875501.808
     41247.52649     30650.25045  23502394.879    23502402.334    23502395.017
   -194761.39949   -147301.64047  20204948.866    20204955.649    20204949.264
    357802.12249    262059.90245  23874724.362    23874733.119    23874725.469
 99  4 30 15 34 59.9990000  0  7G27G 2G26G19G15G 7G13
    246436.17749    184613.37747  20933599.054    20933605.846    20933599.273
    -92449.84949    -68241.64147  20962303.534    20962309.924    20962303.678
   -109388.64549    -81597.83647  22348515.251    22348522.510    22348516.048
    483198.25748    361670.33444  24890586.750    24890599.348    24890586.755
     52153.64849     39148.51045  23504470.325    23504477.757    23504470.385
   -231004.15049   -175542.73847  20198052.273    20198058.886    20198052.533
    432987.85349    320646.05945  23889032.006    23889040.552    23889032.896
 99  4 30 15 35 29.9990000  0  7G27G 2G26G19G15G 7G13
    288030.62249    217024.57847  20941514.309    20941521.053    20941514.444
   -106551.51449    -79229.96847  20959620.185    20959626.467    20959620.237
   -125672.84949    -94286.84447  22345416.656    22345423.793    22345417.323
    562523.21548    423481.73344  24905681.716    24905694.060    24905681.654
     63540.12149     48021.05646  23506637.290    23506644.746    23506637.207
   -266882.57549   -203499.95247  20191224.892    20191231.411    20191225.113
    508121.08349    379191.29045  23903329.467    23903337.993    23903330.407
 99  4 30 15 35 59.9990000  0  6G27G 2G26G15G 7G13
    329973.96449    249707.65347  20949495.879    20949502.644    20949496.008
   -120568.88149    -90152.60747  20956952.873    20956959.058    20956952.841
   -141528.93249   -106642.24447  22342399.386    22342406.522    22342400.021
     75411.74949     57271.64746  23508896.519    23508903.877    23508896.459
   -302393.37449   -231170.70147  20184467.514    20184473.897    20184467.666
    583216.71249    437707.23845  23917619.880    23917628.206    23917620.688
 99  4 30 15 36 29.9990000  0  6G27G 2G26G15G 7G13
    372285.31949    282677.48447  20957547.468    20957554.268    20957547.598
   -134510.72949   -101016.39547  20954299.917    20954306.034    20954299.832
   -156951.99649   -118660.25947  22339464.656    22339471.607    22339465.199
     87773.42249     66904.09546  23511249.009    23511256.250    23511248.886
   -337526.61149   -258547.24547  20177781.950    20177788.278    20177782.070
    658279.00649    496197.20545  23931903.844    23931912.168    23931904.599
 99  4 30 15 36 59.9990000  0  6G27G 2G26G15G 7G13
    414987.44749    315951.82147  20965673.382    20965680.245    20965673.561
   -148377.99649   -111822.07347  20951661.191    20951667.192    20951661.007
   -171930.04049   -130331.47847  22336614.480    22336621.406    22336615.012
    100633.22049     76924.67946  23513696.207    23513703.387    23513696.074
   -372267.47449   -285618.04047  20171171.001    20171177.332    20171171.108
    733308.45049    554661.53445  23946181.612    23946190.006    23946182.350
 99  4 30 15 37 29.9990000  0  7G27G 2G26G 4G15G 7G13
    458080.43149    349530.70647  20973873.751    20973880.568    20973873.909
   -162177.50549   -122574.94947  20949035.306    20949041.226    20949035.085
   -186442.92649   -141640.26347  22333852.870    22333859.676    22333853.342
   -413550.36959   -296242.62755  24170094.907    24170104.927    24170096.039
    113997.40849     87338.31046  23516239.471    23516246.594    23516239.281
   -406608.36249   -312377.17747  20164636.084    20164642.429    20164636.230
    808280.70049    613081.29045  23960448.737    23960456.952    23960449.216
 99  4 30 15 37 59.9990000  0  7G27G 2G26G 4G15G 7G13
    501583.30149    383429.00047  20982152.205    20982158.922    20982152.289
   -175890.38049   -133260.31547  20946425.918    20946431.779    20946425.661
   -200471.87449   -152571.90947  22331183.182    22331190.166    22331183.694
   -546664.22759   -399967.65655  24144763.981    24144774.202    24144764.812
    127885.05649     98159.81946  23518882.303    23518889.327    23518882.074
   -440532.72249   -338811.74347  20158180.536    20158186.837    20158180.654
    883187.46449    671450.04845  23974703.094    23974711.423    23974703.534
 99  4 30 15 38 29.9990000  0  7G27G 2G26G 4G15G 7G13
    545557.58449    417694.61847  20990520.342    20990527.004    20990520.385
   -189449.97949   -143826.24747  20943845.644    20943851.503    20943845.397
   -213954.46449   -163077.84647  22328617.566    22328624.631    22328618.075
   -679812.40549   -503719.32245  24119426.671    24119437.169    24119427.172
    142350.86149    109431.85346  23521635.127    23521642.136    23521634.873
   -473983.33249   -364877.15247  20151815.119    20151821.453    20151815.204
    958071.91549    729801.43845  23988953.183    23988961.599    23988953.630
 99  4 30 15 38 59.9990000  0  7G27G 2G26G 4G15G 7G13
    589970.00049    452301.64647  20998971.799    20998978.460    20998971.843
   -202888.44249   -154297.79447  20941288.406    20941294.261    20941288.166
   -226940.50749   -173196.86047  22326146.518    22326153.613    22326146.985
   -813009.74149   -607509.37845  24094079.750    24094090.248    24094080.300
    157358.90549    121126.40146  23524491.177    23524498.181    23524490.854
   -507003.44649   -390607.11247  20145531.686    20145537.971    20145531.690
   1032885.18849    788097.33945  24003189.776    24003198.240    24003190.188
 99  4 30 15 39 29.9990000  0  7G27G 2G26G 4G15G 7G13
    634778.27149    487217.12447  21007498.608    21007505.261    21007498.620
   -216230.56449   -164694.27247  20938749.528    20938755.358    20938749.285
   -239469.80249   -182959.98747  22323762.351    22323769.340    22323762.781
   -946291.37649   -711365.11045  24068717.096    24068727.374    24068717.763
    172872.31549    133214.72346  23527443.244    23527450.369    23527442.999
   -539637.35749   -416036.13047  20139321.654    20139327.989    20139321.685
   1107592.35149    846310.55945  24017406.239    24017414.709    24017406.580
 99  4 30 15 39 59.9990000  0  7G27G 2G26G 4G15G 7G13
    680009.91149    522462.51447  21016105.949    21016112.632    21016105.974
   -229428.69849   -174978.54547  20936237.994    20936243.864    20936237.798
   -251525.52949   -192354.07447  22321468.158    22321475.277    22321468.641
  -1079629.94549   -815265.18645  24043343.415    24043353.806    24043344.089
    188913.99949    145714.70846  23530496.021    23530503.044    23530495.699
   -571861.32049   -441145.71047  20133189.610    20133196.029    20133189.674
   1182239.93649    904477.36145  24031611.121    24031619.813    24031611.582
 99  4 30 15 40 29.9990000  0  7G27G 2G26G 4G15G 7G13
    725638.28549    558017.03547  21024788.760    21024795.508    21024788.822
   -242492.25149   -185157.95247  20933752.148    20933757.980    20933751.917
   -263125.69549   -201393.19847  22319260.670    22319267.822    22319261.185
  -1213044.20649   -919224.17245  24017955.026    24017965.959    24017956.105
    205459.03249    158606.91145  23533644.414    23533651.511    23533644.155
   -603698.65549   -465954.02047  20127131.218    20127137.645    20127131.232
   1256824.74649    962595.28245  24045804.368    24045812.934    24045804.708
 99  4 30 15 40 59.9990000  0  7G27G 2G26G 4G15G 7G13
    771662.05149    593879.65247  21033546.873    21033553.651    21033546.905
   -255412.23149   -195225.48647  20931293.584    20931299.423    20931293.340
   -274274.81049   -210080.84047  22317139.188    22317146.262    22317139.642
  -1346526.63849  -1023236.39945  23992554.111    23992564.996    23992555.206
    222510.86749    171894.03645  23536889.306    23536896.417    23536889.057
   -635148.45849   -490460.36147  20121146.637    20121153.009    20121146.571
   1331351.68749   1020668.05045  24059986.594    24059995.096    24059986.875
 99  4 30 15 41 29.9990000  0  7G27G 2G26G 4G15G 7G13
    818068.88149    630040.75747  21042377.820    21042384.682    21042377.870
   -268181.48949   -205175.57247  20928863.707    20928869.566    20928863.460
   -284961.66949   -218408.30147  22315105.622    22315112.671    22315106.054
  -1480077.56149  -1127301.89245  23967140.482    23967151.049    23967141.220
    240069.38949    185575.96145  23540230.635    23540237.781    23540230.348
   -666194.32249   -514651.94447  20115238.844    20115245.234    20115238.779
   1405837.78249   1078709.01045  24074160.917    24074169.559    24074161.287
 99  4 30 15 41 59.9990000  0  7G27G 2G26G 4G15G 7G13
    864868.24949    666507.72547  21051283.545    21051290.420    21051283.537
   -280797.85949   -215006.53247  20926462.925    20926468.817    20926462.680
   -295164.76149   -226358.78647  22313164.117    22313171.078    22313164.516
  -1613682.76149  -1231409.70445  23941716.172    23941726.730    23941716.945
    258148.37649    199663.43945  23543670.901    23543678.146    23543670.687
   -696803.73449   -538503.43747  20109414.027    20109420.501    20109413.992
   1480302.59649   1136733.43445  24088331.211    24088339.940    24088331.603
 99  4 30 15 42 29.9990000  0  7G27G 2G26G 4G15G 7G13
    912045.50149    703269.15147  21060261.160    21060268.052    21060261.136
   -293278.78149   -224731.94947  20924087.875    20924093.836    20924087.676
   -304892.54349   -233938.91747  22311312.992    22311319.950    22311313.413
  -1747366.99149  -1335579.10645  23916277.009    23916287.397    23916277.656
    276730.99749    214143.36345  23547207.126    23547214.359    23547206.887
   -726992.43749   -562027.10647  20103669.296    20103675.815    20103669.291
   1554722.42249   1194722.83445  24102492.969    24102501.732    24102493.317
 99  4 30 15 42 59.9990000  0  7G27G 2G26G 4G15G 7G13
    959592.29849    740318.55147  21069309.091    21069316.022    21069309.056
   -305629.88449   -234356.21147  20921737.668    20921743.560    20921737.376
   -314150.25949   -241152.73247  22309551.202    22309558.376    22309551.689
  -1881150.83549  -1439826.15645  23890818.830    23890829.167    23890819.404
    295807.60749    229008.23445  23550837.297    23550844.512    23550837.071
   -756770.96949   -585231.15947  20098002.677    20098009.165    20098002.640
   1629083.14949   1252666.05045  24116643.436    24116652.395    24116643.827
 99  4 30 15 43 29.9990000  0  7G27G 2G26G 4G15G 7G13
   1007532.57349    777674.54847  21078431.847    21078438.842    21078431.835
   -317830.06049   -243862.85447  20919416.138    20919421.995    20919415.792
   -322900.14149   -247970.85847  22307886.243    22307893.404    22307886.684
  -2015023.85549  -1544142.65045  23865343.425    23865353.923    23865344.135
    315399.07649    244274.27545  23554565.400    23554572.667    23554565.231
   -786117.31149   -608098.44247  20092418.259    20092424.749    20092418.242
   1703408.76949   1310582.02745  24130787.355    24130796.203    24130787.695
 99  4 30 15 43 59.9990000  0  7G27G 2G26G 4G15G 7G13
   1055879.20349    815347.19047  21087631.982    21087638.965    21087631.962
   -329875.48349   -253248.92347  20917123.928    20917129.853    20917123.639
   -331148.22849   -254397.95847  22306316.598    22306323.972    22306317.119
  -2148987.46749  -1648529.77245  23839850.934    23839861.577    23839851.677
    335504.00749    259940.39245  23558391.304    23558398.647    23558391.113
   -815059.18049   -630650.54147  20086910.928    20086917.262    20086910.814
   1777683.72149   1368458.51645  24144921.484    24144930.251    24144921.862
 99  4 30 15 44 29.9990000  0  7G27G 2G26G 4G15G 7G13
   1104636.15949    853339.56447  21096910.209    21096917.154    21096910.171
   -341762.15749   -262511.28247  20914861.987    20914867.942    20914861.699
   -338909.65249   -260445.87047  22304839.662    22304847.055    22304840.176
  -2283040.37049  -1752986.55245  23814341.634    23814352.080    23814342.247
    356117.22849    276002.59945  23562313.963    23562321.243    23562313.769
   -843611.78049   -652899.32247  20081477.491    20081483.834    20081477.444
   1851885.76649   1426278.12645  24159041.709    24159050.540    24159042.122
 99  4 30 15 44 59.9990000  0  7G27G 2G26G 4G15G 7G13
   1153789.24049    891640.59047  21106263.786    21106270.708    21106263.750
   -353525.15049   -271677.27147  20912623.540    20912629.569    20912623.298
   -346210.21749   -266134.65347  22303450.638    22303457.967    22303451.045
  -2417172.29249  -1857504.85945  23788817.075    23788827.553    23788817.766
    377228.91249    292453.23845  23566331.488    23566338.717    23566331.260
   -871781.19249   -674849.51047  20076117.002    20076123.356    20076116.977
   1925994.37949   1484024.94045  24173144.259    24173153.043    24173144.617
 99  4 30 15 45 29.9990000  0  7G27G 2G26G 4G15G 7G13
   1203337.59549    930249.64547  21115692.604    21115699.469    21115692.551
   -365185.39549   -280763.19847  20910404.738    20910410.746    20910404.452
   -353057.56049   -271470.28447  22302147.615    22302155.008    22302148.074
  -2551368.15149  -1962073.03845  23763280.443    23763290.707    23763281.052
    398835.52149    309289.53045  23570443.191    23570450.371    23570442.920
   -899566.90949   -696500.71247  20070829.507    20070835.880    20070829.521
   2000000.64949   1541692.06945  24187227.282    24187235.998    24187227.704
 99  4 30 15 45 59.9990000  0  7G27G 2G26G 4G15G 7G13
   1253273.35749    969160.56747  21125195.086    21125201.959    21125195.048
   -376747.16449   -289772.38847  20908204.631    20908210.658    20908204.343
   -359459.77249   -276459.04147  22300929.300    22300936.882    22300929.799
  -2685603.09849  -2066671.63245  23737736.324    23737746.555    23737736.917
    420940.99649    326514.54745  23574649.703    23574656.966    23574649.448
   -926955.65349   -717842.58447  20065617.617    20065623.945    20065617.617
   2073907.84949   1599281.96845  24201291.482    24201300.299    24201291.852
 99  4 30 15 46 29.9990000  0  7G27G 2G26G 4G15G 7G13
   1303580.51949   1008360.89347  21134768.262    21134775.141    21134768.236
   -388225.58149   -298716.63147  20906020.437    20906026.427    20906020.116
   -365422.07149   -281105.05447  22299794.944    22299802.249    22299795.342
  -2819869.27849  -2171294.56945  23712186.078    23712196.530    23712186.907
    443541.24949    344125.12345  23578950.390    23578957.638    23578950.150
   -953935.00349   -738865.45247  20060483.499    20060489.922    20060483.594
   2147717.00049   1656795.49345  24215337.069    24215345.841    24215337.373
 99  4 30 15 46 59.9990000  0  7G27G 2G26G 4G15G 7G13
   1354256.21349   1047848.38547  21144411.580    21144418.477    21144411.558
   -399607.98549   -307586.05647  20903854.485    20903860.452    20903854.146
   -370929.15949   -285396.32547  22298746.920    22298754.299    22298747.376
  -2954160.77549  -2275937.28645  23686631.112    23686641.520    23686632.060
    466640.63449    362124.59045  23583346.095    23583353.328    23583345.866
   -980500.46749   -759565.80647  20055428.265    20055434.703    20055428.366
   2221446.25549   1714246.75045  24229367.420    24229376.174    24229367.643
 99  4 30 15 47 29.9980000  0  7G27G 2G26G 4G15G 7G13
   1405304.07449   1087625.86747  21154125.709    21154132.630    21154125.704
   -410862.31149   -316355.68247  20901712.809    20901718.856    20901712.535
   -375976.71249   -289329.51147  22297786.324    22297793.818    22297786.822
  -3088484.80349  -2380605.26445  23661070.155    23661080.491    23661070.977
    490239.44349    380513.22045  23587836.806    23587844.040    23587836.541
  -1006650.33349   -779942.31747  20050452.231    20050458.562    20050452.247
   2295101.19449   1771640.08745  24243383.571    24243392.432    24243383.810
 99  4 30 15 47 59.9980000  0  7G27G 2G26G 4G15G 7G13
   1456727.47849   1127695.98647  21163911.326    21163918.263    21163911.331
   -421964.26249   -325006.57147  20899600.145    20899606.246    20899599.927
   -380575.86349   -292913.30547  22296911.140    22296918.581    22296911.631
  -3222848.83949  -2485304.45445  23635501.462    23635511.802    23635502.293
    514339.51249    399292.45645  23592422.859    23592430.185    23592422.631
  -1032392.46249   -800001.11247  20045553.780    20045560.013    20045553.746
   2368678.09749   1828972.71945  24257384.846    24257393.725    24257385.113
 99  4 30 15 48 29.9980000  0  7G27G 2G26G 4G15G 7G13
   1508560.92349   1168085.61447  21173774.935    21173781.926    21173774.924
   -432877.37049   -333510.31047  20897523.481    20897529.590    20897523.266
   -384705.16649   -296130.96247  22296125.507    22296132.801    22296125.919
  -3357227.71949  -2590015.22445  23609930.143    23609940.275    23609930.769
    538958.27649    418475.85445  23597107.676    23597115.023    23597107.430
  -1057712.43949   -819730.95047  20040735.587    20040741.750    20040735.514
   2442186.68449   1886252.01545  24271373.218    24271382.187    24271373.518
 99  4 30 15 48 59.9980000  0  7G27G 2G26G 4G15G 7G13
   1560802.85849   1208793.54647  21183716.245    21183723.321    21183716.273
   -443602.99149   -341867.95247  20895482.503    20895488.586    20895482.284
   -388371.08049   -298987.56847  22295427.983    22295435.005    22295428.375
  -3491625.10649  -2694740.36845  23584354.988    23584365.335    23584355.766
    564083.90049    438054.19946  23601888.996    23601896.364    23601888.715
  -1082623.97749   -839142.53447  20035995.075    20036001.231    20035995.023
   2515610.18749   1943464.98045  24285345.330    24285354.431    24285345.650
 99  4 30 15 49 29.9980000  0  7G27G 2G26G 4G15G 7G13
   1613429.18549   1249801.00247  21193730.787    21193737.850    21193730.780
   -454173.11949   -350104.43647  20893471.098    20893477.182    20893470.880
   -391582.51149   -301490.01947  22294816.869    22294823.885    22294817.282
  -3626038.34349  -2799477.88645  23558777.080    23558787.350    23558777.720
    589702.82849    458016.94546  23606764.192    23606771.565    23606763.908
  -1107150.87349   -858254.39547  20031327.784    20031333.943    20031327.736
   2588933.64049   2000600.11345  24299298.359    24299307.372    24299298.694
 99  4 30 15 49 59.9980000  0  7G27G 2G26G 4G15G 7G13
   1666424.40549   1291095.90347  21203815.559    21203822.593    21203815.505
   -464617.62849   -358243.02947  20891483.635    20891489.673    20891483.384
   -394330.33849   -303631.22547  22294293.965    22294301.009    22294294.406
  -3760452.53649  -2904216.21745  23533198.989    23533209.126    23533199.492
    615812.69049    478362.23945  23611732.818    23611740.146    23611732.494
  -1131303.36849   -877074.51547  20026731.749    20026737.913    20026731.675
   2662151.57649   2057652.86445  24313231.308    24313240.553    24313231.612
 99  4 30 15 50 29.9980000  0  7G27G 2G26G 4G15G 7G13
   1719745.40749   1332644.66747  21213962.223    21213969.319    21213962.207
   -474988.02249   -366323.87447  20889510.272    20889516.261    20889509.998
   -396632.08549   -305424.83547  22293856.007    22293863.076    22293856.436
  -3894907.35249  -3008986.11045  23507613.180    23507623.306    23507613.518
    642376.72149    499061.40945  23616787.788    23616795.179    23616787.481
  -1155114.08449   -895628.31547  20022200.718    20022206.936    20022200.669
   2735239.16849   2114604.23245  24327139.437    24327148.713    24327139.836
 99  4 30 15 50 59.9980000  0  7G27G 2G26G 4G15G 7G13
   1773419.21049   1374468.34047  21224176.040    21224183.193    21224176.046
   -485245.60649   -374316.81447  20887558.375    20887564.349    20887558.081
   -398443.31749   -306836.22547  22293511.408    22293518.520    22293511.820
  -4029365.15249  -3113758.35845  23482026.614    23482036.868    23482027.012
    669441.30349    520150.66445  23621938.043    23621945.415    23621937.707
  -1178538.53949   -913881.13647  20017743.182    20017749.467    20017743.151
   2808244.04649   2171490.99745  24341031.843    24341041.270    24341032.231
 99  4 30 15 51 29.9980000  0  7G27G 2G26G 4G15G 7G13
   1827433.69749   1416557.48247  21234454.739    21234461.888    21234454.721
   -495389.37949   -382221.07247  20885628.079    20885634.087    20885627.801
   -399783.67249   -307880.68847  22293256.399    22293263.464    22293256.790
  -4163839.72149  -3218543.70845  23456436.803    23456447.121    23456437.285
    696996.89749    541622.51845  23627181.728    23627189.121    23627181.458
  -1201580.14149   -931835.62747  20013358.476    20013364.806    20013358.457
   2881156.40149   2228305.75145  24354906.703    24354916.118    24354906.962
 99  4 30 15 51 59.9980000  0  7G27G 2G26G 4G15G 7G13
   1881815.41849   1458932.79247  21244803.289    21244810.451    21244803.287
   -505383.17849   -390008.46547  20883726.319    20883732.369    20883726.061
   -400669.48849   -308570.96047  22293087.939    22293094.951    22293088.289
  -4298330.83849  -3323341.90545  23430843.804    23430854.373    23430844.454
    725044.87849    563478.03745  23632519.222    23632526.522    23632518.893
  -1224214.25349   -949472.59447  20009051.322    20009057.659    20009051.299
   2953967.56149   2285041.63145  24368762.223    24368771.648    24368762.529
 99  4 30 15 52 29.9980000  0  7G27G 2G26G 4G15G 7G13
   1936587.70649   1501612.43147  21255226.215    21255233.327    21255226.187
   -515183.44149   -397645.05947  20881861.464    20881867.484    20881861.155
   -401095.31649   -308902.81347  22293006.607    22293013.889    22293007.144
  -4432825.13949  -3428142.52945  23405250.373    23405260.963    23405250.977
    753594.84549    585724.69045  23637952.145    23637959.453    23637951.823
  -1246419.45849   -966775.35047  20004825.691    20004832.141    20004825.796
   3026687.47949   2341706.45245  24382600.481    24382609.929    24382600.772
 99  4 30 15 52 59.9980000  0  7G27G 2G26G 4G15G 7G13
   1991737.92649   1544586.56447  21265721.013    21265728.129    21265721.001
   -524794.52749   -405134.23447  20880032.455    20880038.579    20880032.235
   -401090.65749   -308899.21047  22293007.395    22293014.861    22293008.001
  -4567333.88549  -3532954.42345  23379654.121    23379664.775    23379654.723
    782622.74549    608343.75345  23643475.950    23643483.340    23643475.697
  -1268223.88249   -983765.80347  20000676.536    20000682.893    20000676.577
   3099291.63149   2398281.11845  24396416.629    24396425.948    24396416.887
 99  4 30 15 53 29.9980000  0  7G27G 2G26G 4G15G 7G13
   2047308.74449   1587888.43547  21276295.861    21276302.995    21276295.834
   -534190.44549   -412455.75247  20878244.526    20878250.651    20878244.293
   -400623.05449   -308534.87547  22293096.459    22293103.952    22293097.048
  -4701813.14349  -3637743.35445  23354063.416    23354074.150    23354064.061
    812156.17649    631356.74845  23649096.019    23649103.437    23649095.722
  -1289609.12149  -1000429.62547  19996607.089    19996613.421    19996607.107
   3171795.83449   2454777.67345  24410213.721    24410223.411    24410214.049
 99  4 30 15 53 59.9980000  0  7G27G 2G26G 4G15G 7G13
   2103262.30049   1631488.54547  21286943.474    21286950.704    21286943.489
   -543421.19349   -419648.55847  20876488.038    20876494.150    20876487.785
   -399707.52449   -307821.52547  22293270.835    22293278.222    22293271.326
  -4836288.57349  -3742529.29445  23328473.463    23328484.300    23328474.177
    842167.73049    654742.33145  23654807.019    23654814.486    23654806.777
  -1310621.06349  -1016802.56447  19992608.553    19992614.962    19992608.655
   3244161.51349   2511166.52945  24423984.497    24423994.170    24423984.943
 99  4 30 15 54 29.9980000  0  7G27G 2G26G 4G15G 7G13
   2159574.71549   1675368.28547  21297659.473    21297666.698    21297659.434
   -552522.03149   -426740.14147  20874756.267    20874762.350    20874755.982
   -398339.48349   -306755.55947  22293531.244    22293538.542    22293531.713
  -4970775.24849  -3847323.92045  23302881.074    23302892.298    23302882.036
    872650.06249    678494.76545  23660607.758    23660615.165    23660607.416
  -1331281.24949  -1032901.41547  19988677.049    19988683.473    19988677.144
   3316386.38949   2567445.47245  24437728.378    24437738.255    24437728.927
 99  4 30 15 54 59.9980000  0  7G27G 2G26G 4G15G 7G13
   2216264.72049   1719542.24447  21308447.291    21308454.537    21308447.250
   -561485.87149   -433724.96547  20873050.516    20873056.606    20873050.236
   -396503.18849   -305324.69647  22293880.857    22293888.056    22293881.240
  -5105249.15849  -3952108.69245  23277291.299    23277302.603    23277292.407
    903631.45849    702636.07945  23666503.388    23666510.789    23666503.063
  -1351560.89049  -1048703.73547  19984817.947    19984824.421    19984818.033
   3388487.49249   2623628.13845  24451448.744    24451458.554    24451449.392
 99  4 30 15 55 29.9980000  0  7G27G 2G26G 4G15G 7G13
   2273309.18149   1763992.40447  21319302.535    21319309.815    21319302.499
   -570333.71449   -440619.41347  20871366.917    20871372.913    20871366.589
   -394216.22449   -303542.68347  22294316.077    22294323.312    22294316.459
  -5239721.69749  -4056892.36745  23251701.940    23251713.198    23251703.005
    935102.37049    727158.79945  23672492.174    23672499.560    23672491.843
  -1371452.16349  -1064203.43347  19981032.783    19981039.227    19981032.832
   3460441.44849   2679695.99545  24465141.354    24465151.230    24465141.916
 99  4 30 15 55 59.9980000  0  7G27G 2G26G 4G15G 7G13
   2330705.44249   1808716.69047  21330224.706    21330232.023    21330224.718
   -579046.35449   -447408.49847  20869708.995    20869714.983    20869708.659
   -391475.60449   -301407.16447  22294837.605    22294844.899    22294838.007
  -5374186.71349  -4161670.13045  23226114.191    23226125.307    23226115.127
    967064.69649    752064.42445  23678574.453    23678581.829    23678574.104
  -1390927.83249  -1079379.29147  19977326.713    19977333.140    19977326.742
   3532274.99149   2735670.19745  24478810.919    24478820.618    24478811.340
 99  4 30 15 56 29.9980000  0  7G27G 2G26G 4G15G 7G13
   2388415.89849   1853685.80847  21341206.738    21341214.014    21341206.721
   -587633.91849   -454100.11847  20868074.794    20868080.861    20868074.497
   -388329.19149   -298955.45847  22295436.369    22295443.604    22295436.780
  -5508666.73749  -4266459.62545  23200523.317    23200534.400    23200524.373
    999476.25249    777320.10545  23684742.079    23684749.573    23684741.796
  -1410013.80649  -1094251.48147  19973694.841    19973701.205    19973694.822
   3603964.47549   2791531.89445  24492452.804    24492463.004    24492453.400
 99  4 30 15 56 59.9980000  0  7G27G 2G26G 4G15G 7G13
   2446488.17749   1898936.86247  21352257.656    21352264.859    21352257.580
   -596043.55549   -460653.10147  20866474.439    20866480.555    20866474.194
   -384743.35949   -296161.35247  22296118.812    22296125.897    22296119.209
  -5643100.94949  -4371213.42745  23174941.341    23174952.274    23174942.306
   1032370.33449    802951.84445  23691001.664    23691009.190    23691001.381
  -1428673.13549  -1108791.22547  19970144.057    19970150.488    19970144.060
   3675540.66549   2847305.56645  24506073.318    24506083.222    24506073.927
 99  4 30 15 57 29.9980000  0  7G27G 2G26G 4G15G 7G13
   2504937.06449   1944481.38347  21363380.183    21363387.372    21363380.102
   -604260.97049   -467056.30247  20864910.683    20864916.853    20864910.483
   -380688.58849   -293001.81447  22296890.471    22296897.520    22296890.865
  -5777462.63049  -4475910.71745  23149373.188    23149383.904    23149374.121
   1065756.59649    828967.09145  23697354.953    23697362.440    23697354.621
  -1446909.40649  -1123001.31147  19966673.797    19966680.279    19966673.831
   3747026.72149   2903008.80845  24519677.051    24519686.820    24519677.350
 99  4 30 15 57 59.9980000  0  7G27G 2G26G 4G15G 7G13
   2563758.87949   1990316.48947  21374573.727    21374580.891    21374573.610
   -612287.75449   -473310.95447  20863383.242    20863389.398    20863383.051
   -376167.85549   -289479.19247  22297750.867    22297757.884    22297751.205
  -5911745.13849  -4580546.29745  23123820.012    23123830.677    23123820.905
   1099627.65449    855360.10545  23703800.519    23703807.944    23703800.129
  -1464754.94949  -1136906.92447  19963278.031    19963284.411    19963277.987
   3818421.99649   2958641.46945  24533263.177    24533272.839    24533263.427
 99  4 30 15 58 29.9980000  0  7G27G 2G26G 4G15G 7G13
   2622943.29049   2036434.13747  21385836.291    21385843.422    21385836.096
   -620150.36649   -479437.68047  20861887.026    20861893.208    20861886.873
   -371204.33849   -285611.56147  22298695.544    22298702.446    22298695.828
  -6045967.81349  -4685135.27045  23098278.179    23098288.835    23098279.082
   1133968.38849    882119.09245  23710335.403    23710342.796    23710335.022
  -1482234.29949  -1150527.19947  19959951.935    19959958.211    19959951.814
   3889682.02649   3014168.55045  24546823.446    24546833.575    24546823.867
 99  4 30 15 58 59.9980000  0  7G27G 2G26G 4G15G 7G13
   2682488.56349   2082832.96247  21397167.373    21397174.593    21397167.237
   -627866.19249   -485450.03047  20860418.829    20860424.954    20860418.625
   -365803.11049   -281402.83947  22299723.221    22299730.265    22299723.615
  -6180152.78149  -4789694.83245  23072743.417    23072754.175    23072744.447
   1168772.04149    909238.77445  23716958.265    23716965.706    23716957.938
  -1499353.18749  -1163866.59747  19956694.235    19956700.601    19956694.188
   3960791.84549   3069578.75545  24560355.267    24560365.359    24560355.713
 99  4 30 15 59 29.9980000  0  7G27G 2G26G 4G15G 7G13
   2742385.68649   2129505.97547  21408565.423    21408572.713    21408565.326
   -635430.49649   -491344.30747  20858979.424    20858985.538    20858979.214
   -359962.36349   -276851.63547  22300834.663    22300841.725    22300835.082
  -6314304.46049  -4894228.47645  23047214.969    23047225.820    23047216.097
   1204043.50749    936722.99045  23723670.222    23723677.674    23723669.890
  -1516102.52749  -1176918.02547  19953506.899    19953513.349    19953506.910
   4031758.23549   3124877.11145  24573859.917    24573869.989    24573860.239
 99  4 30 15 59 59.9980000  0  7G27G 2G26G 4G15G 7G13
   2802656.32049   2176470.01847  21420034.587    21420041.921    21420034.503
   -642807.29849   -497092.48147  20857575.705    20857581.791    20857575.484
   -353675.13349   -271952.51147  22302030.934    22302038.222    22302031.445
  -6448412.19149  -4998727.91846  23021695.132    23021705.765    23021696.105
   1239797.84249    964583.44445  23730474.037    23730481.547    23730473.724
  -1532444.55449  -1189652.06947  19950397.153    19950403.567    19950397.122
   4102595.26749   3180074.70645  24587339.767    24587349.762    24587340.150
 99  4 30 16  0 29.9980000  0  7G27G 2G26G 4G15G 7G13
   2863278.07849   2223707.67247  21431570.548    21431577.946    21431570.499
   -650024.89949   -502716.60147  20856202.183    20856208.362    20856202.000
   -346975.24449   -266731.84447  22303305.744    22303313.249    22303306.334
  -6582509.88649  -5103219.51846  22996177.084    22996187.708    22996178.024
   1276003.50049    992795.58545  23737363.817    23737371.315    23737363.479
  -1548387.87549  -1202075.43747  19947363.232    19947369.668    19947363.190
   4173284.83449   3235157.40345  24600791.783    24600801.670    24600792.065
 99  4 30 16  0 59.9980000  0  7G27G 2G26G 4G15G 7G13
   2924274.63649   2271237.38647  21443177.815    21443185.285    21443177.821
   -657050.71949   -508191.28647  20854865.190    20854871.414    20854865.026
   -339837.47949   -261169.97247  22304664.010    22304671.577    22304664.595
  -6716559.55149  -5207673.72345  22970668.184    22970678.792    22970669.119
   1312683.03749   1021376.97245  23744343.781    23744351.306    23744343.391
  -1563918.88549  -1214177.52147  19944407.693    19944414.207    19944407.733
   4243875.62349   3290163.07545  24614224.632    24614234.839    24614225.140
 99  4 30 16  1 29.9980000  0  7G27G 2G26G 4G15G 7G13
   2985612.62049   2319033.13847  21454850.110    21454857.583    21454850.102
   -663924.34249   -513547.36947  20853557.232    20853563.435    20853557.038
   -332300.85249   -255297.31647  22306098.263    22306105.934    22306098.816
  -6850574.68849  -5312100.98145  22945165.951    22945176.526    22945166.792
   1349800.29749   1050299.45245  23751407.040    23751414.563    23751406.637
  -1579078.20049  -1225989.96847  19941522.857    19941529.453    19941522.984
   4314338.12249   3345068.84045  24627633.254    24627643.435    24627633.823
 99  4 30 16  1 59.9980000  0  7G27G 2G26G 4G15G 7G13
   3047308.68849   2367107.91647  21466590.537    21466598.037    21466590.550
   -670629.81049   -518772.42047  20852281.192    20852287.441    20852281.029
   -324348.82549   -249100.94947  22307611.597    22307619.295    22307612.084
  -6984533.52649  -5416484.36545  22919674.413    22919684.914    22919675.216
   1387371.23649   1079575.45545  23758556.534    23758564.132    23758556.202
  -1593862.55649  -1237510.23747  19938709.609    19938716.106    19938709.639
   4384683.02849   3399882.97545  24641019.592    24641029.674    24641019.977
 99  4 30 16  2 29.9980000  0  7G27G 2G26G 4G15G 7G13
   3109347.82649   2415450.01947  21478396.322    21478403.747    21478396.265
   -677199.77749   -523891.89847  20851030.962    20851037.246    20851030.807
   -315991.78449   -242589.00847  22309202.009    22309209.704    22309202.452
  -7118436.77949  -5520824.49146  22894193.479    22894203.834    22894194.232
   1425389.63549   1109200.12245  23765791.222    23765798.889    23765790.870
  -1608304.25549  -1248763.51347  19935961.501    19935967.955    19935961.498
   4454897.42549   3454595.39145  24654381.163    24654391.293    24654381.420
 99  4 30 16  2 59.9980000  0  7G27G 2G26G 4G15G 7G13
   3171736.09249   2464064.16347  21490268.448    21490275.871    21490268.423
   -683620.92649   -528895.41247  20849809.147    20849815.365    20849808.928
   -307200.27449   -235738.51347  22310874.947    22310882.691    22310875.427
  -7252261.82049  -5625103.66946  22868727.375    22868737.653    22868728.153
   1463873.93149   1139187.82945  23773114.515    23773122.271    23773114.178
  -1622397.80349  -1259745.49547  19933279.615    19933286.030    19933279.608
   4524980.51149   3509205.44445  24667717.877    24667727.797    24667717.871
 99  4 30 16  3 29.9980000  0  7G27G 2G26G 4G15G 7G13
   3234446.55749   2512929.37447  21502201.942    21502209.303    21502201.892
   -689905.46449   -533792.47447  20848613.319    20848619.472    20848613.057
   -297980.21249   -228554.08647  22312629.426    22312637.304    22312629.951
  -7386024.10849  -5729333.92746  22843273.220    22843283.431    22843273.973
   1502810.93649   1169528.28345  23780524.042    23780531.797    23780523.736
  -1636151.23249  -1270462.45347  19930662.434    19930668.819    19930662.427
   4594887.06649   3563677.94745  24681020.685    24681030.684    24681020.817
 99  4 30 16  3 59.9980000  0  7G27G 2G26G 4G15G 7G13
   3297440.51049   2562015.48647  21514189.475    21514196.701    21514189.323
   -696079.77749   -538603.64847  20847438.455    20847444.555    20847438.161
   -288370.60849   -221066.11947  22314458.075    22314465.933    22314458.599
  -7519760.55349  -5833544.07446  22817824.058    22817834.128    22817824.746
   1542167.68549   1200195.84045  23788013.417    23788021.149    23788013.091
  -1649592.47149  -1280936.14347  19928104.567    19928111.003    19928104.603
   4664572.21049   3617977.95445  24694281.445    24694291.545    24694281.667
 99  4 30 16  4 29.9980000  0  7G27G 2G26G 4G15G 7G13
   3360764.33849   2611358.62947  21526239.713    21526246.887    21526239.548
   -702103.44349   -543297.43547  20846292.183    20846298.300    20846291.924
   -278332.87349   -213244.55347  22316368.227    22316376.064    22316368.740
  -7653417.92349  -5937692.64046  22792389.902    22792399.874    22792390.603
   1581980.80749   1231219.00145  23795589.655    23795597.422    23795589.344
  -1662659.32849  -1291118.11947  19925617.945    19925624.477    19925618.022
   4734082.26949   3672141.49844  24707508.831    24707518.869    24707509.345
 99  4 30 16  4 59.9980000  0  7G27G 2G26G 4G15G 7G13
   3424419.32349   2660959.82547  21538352.924    21538360.105    21538352.747
   -707946.90449   -547850.80047  20845180.266    20845186.344    20845179.992
   -267864.29849   -205087.27647  22318360.398    22318368.250    22318360.878
  -7786981.86349  -6041768.39146  22766973.518    22766983.365    22766974.196
   1622251.21249   1262598.48645  23803252.866    23803260.701    23803252.571
  -1675322.77849  -1300985.74647  19923208.197    19923214.716    19923208.212
   4803410.99149   3726163.73644  24720701.790    24720711.877    24720702.147
 99  4 30 16  5 29.9980000  0  7G27G 2G26G 4G15G 7G13
   3488413.12449   2710825.02647  21550530.621    21550537.808    21550530.438
   -713600.42849   -552256.16247  20844104.454    20844110.520    20844104.197
   -256981.54849   -196607.25247  22320431.447    22320439.196    22320431.883
  -7920437.51649  -6145759.75546  22741577.636    22741587.500    22741578.378
   1662979.30149   1294334.61645  23811003.132    23811011.085    23811002.816
  -1687574.51049  -1310532.55147  19920876.791    19920883.305    19920876.796
   4872563.73548   3780048.86544  24733860.905    24733871.129    24733861.468
 99  4 30 16  5 59.9980000  0  7G27G 2G26G 4G15G 7G13
   3552763.93349   2760968.40047  21562776.293    21562783.452    21562776.053
   -719053.60149   -556505.40947  20843066.705    20843072.811    20843066.516
   -245678.50449   -187799.73047  22322582.464    22322590.029    22322582.868
  -8053766.07949  -6249652.10646  22716205.966    22716215.815    22716206.760
   1704171.25349   1326432.17645  23818841.717    23818849.731    23818841.391
  -1699401.71349  -1319748.55747  19918626.165    19918632.653    19918626.160
   4941576.65249   3833825.02844  24746993.543    24747004.003    24746994.186
 99  4 30 16  6 29.9980000  0  6G27G 2G26G 4G15G 7
   3617458.41949   2811379.57647  21575087.221    21575094.520    21575087.035
   -724314.04849   -560604.48747  20842065.730    20842071.808    20842065.515
   -233954.53349   -178664.22247  22324813.539    22324821.022    22324813.911
  -8186973.33749  -6353449.91946  22690857.396    22690867.278    22690858.205
   1745814.32949   1358881.27845  23826766.118    23826774.221    23826765.847
  -1710813.95649  -1328641.21647  19916454.563    19916460.950    19916454.502
